Content
SEND FEEDBACK

Daily
Averages
Monthly
Summary
Austria

ABRIACH, AUSTRIA


Home > Europe > Austria
Elevation: 1732 meters     Latitude: 46 30N     Longitude: 014 30E

WEATHER
 
SELECT A DAY
Number of Records: 311,479;   Date Range: 7/1/96 - 8/10/14
 
SHARE

PRINT THIS DATA

[ ← Previous Day ]
WEATHER ALMANAC - 13 FEBRUARY, 2013
[ Next Day → ]
[ °F ]   °C
Weather ElementAverageHighLow
Temperature-3 °C-0.6 °C (4:00 pm)-7.2 °C (1:00 am)
Dewpoint-3.9 °C-1 °C (2:50 pm)-8 °C (12:50 am)
Humidity93.2 %100 % (2:50 pm)85 % (10:00 am)
Barometer1015.6 hPa1022.4 hPa (10:00 pm)1011.2 hPa (12:50 am)
Wind Speed4.8 km/h9.3 km/h (1:50 am)
Weather ElementAverage
Visibility3.7 km
Wind DirectionSSW (195.8 °)

Weather ElementTotal
Precipitation---
Heating Degree Days22.2 (Base 18.3)
Averaged from 55 records on 13 February, 2013
WEATHER CONDITIONS BREAKOUT
WIND DIRECTION BREAKOUT
WEATHER BY HOUR - 13 FEBRUARY, 2013
[ °F ]   °C
Local TimeTemperatureDewpointHumidityBarometerVisibilityWind DirectionWind SpeedGust SpeedPrecipitationEventsConditions
12:50 AM-7 °C-8 °C93 %1011.2 hPa5 kmNW (310°)3.7 km/hOvercast
1:00 AM-7.2 °C-7.8 °C95 %1015.2 hPa4.8 kmNW (310°)3.5 km/h
1:20 AM-7 °C-8 °C93 %1011.2 hPaNW (310°)7.4 km/hOvercast
1:50 AM-7 °C-8 °C93 %1011.2 hPa6 kmNW (310°)9.3 km/hOvercast
2:20 AM-6 °C-7 °C93 %1011.2 hPa6.9 kmNW (310°)5.6 km/hMostly Cloudy
2:50 AM-6 °C-7 °C93 %1012.2 hPa6.9 kmWNW (300°)5.6 km/hOvercast
3:20 AM-6 °C-7 °C93 %1012.2 hPa6.9 kmNW (310°)7.4 km/hMostly Cloudy
3:50 AM-6 °C-7 °C93 %1012.2 hPa4 kmNW (310°)5.6 km/hOvercast
4:00 AM-6.1 °C-6.7 °C93 %1015.6 hPa3.2 kmNW (310°)7.2 km/hMist
4:20 AM-6 °C-7 °C93 %1012.2 hPa3.1 kmWNW (300°)5.6 km/hMostly Cloudy
4:50 AM-5 °C-6 °C93 %1012.2 hPa3.1 kmVariable3.7 km/hMostly Cloudy
5:20 AM-5 °C-6 °C93 %1012.2 hPa3.1 kmVariable3.7 km/hMostly Cloudy
5:50 AM-5 °C-6 °C93 %1012.2 hPa3.1 kmNW (320°)3.7 km/hOvercast
6:20 AM-5 °C-6 °C93 %1013.2 hPa5 kmNW (320°)5.6 km/hOvercast
6:50 AM-5 °C-6 °C93 %1013.2 hPa5 kmNW (310°)7.4 km/hOvercast
7:00 AM-5 °C-6.1 °C90 %1016.9 hPa4.8 kmNW (310°)7.2 km/hMist
7:20 AM-5 °C-6 °C93 %1013.2 hPa4.5 kmWest (280°)7.4 km/hOvercast
7:50 AM-4 °C-5 °C93 %1014.2 hPa4.5 kmNW (310°)3.7 km/hOvercast
8:20 AM-4 °C-5 °C93 %1014.2 hPa5 kmWNW (300°)7.4 km/hOvercast
8:50 AM-4 °C-5 °C93 %1014.2 hPa5 kmNW (310°)7.4 km/hOvercast
9:20 AM-4 °C-5 °C93 %1014.2 hPa5 kmNW (310°)5.6 km/hSnowLight Snow
9:50 AM-3 °C-4 °C93 %1015.2 hPa3.5 kmNW (310°)5.6 km/hSnowLight Snow
10:00 AM-2.8 °C-4.4 °C85 %1018.3 hPa3.2 kmNW (310°)7.2 km/hSnowLight Snow
10:20 AM-3 °C-4 °C93 %1015.2 hPa3.1 kmNW (320°)5.6 km/hSnowLight Snow
10:50 AM-2 °C-4 °C86 %1015.2 hPa3.1 kmNW (310°)5.6 km/hSnowLight Snow
11:20 AM-2 °C-4 °C86 %1015.2 hPa2.6 kmNW (310°)7.4 km/hSnowLight Snow
11:50 AM-2 °C-3 °C93 %1015.2 hPa2.6 kmNW (320°)7.4 km/hSnowLight Snow
12:20 PM-2 °C-3 °C93 %1015.2 hPa2.6 kmNW (310°)5.6 km/hSnowLight Snow
12:50 PM-2 °C-3 °C93 %1015.2 hPa1.9 kmNW (320°)5.6 km/hSnowLight Snow
1:00 PM-1.7 °C-2.8 °C88 %1018.6 hPa1.6 kmNW (320°)7.2 km/hSnowLight Snow
1:20 PM-1 °C-2 °C93 %1016.3 hPa2.3 kmVariable5.6 km/hSnowLight Snow
1:50 PM-1 °C-2 °C93 %1015.2 hPa2.6 kmVariable1.9 km/hSnowLight Snow
2:20 PM-1 °C-2 °C93 %1015.2 hPa2.6 kmVariable1.9 km/hSnowLight Snow
2:50 PM-1 °C-1 °C100 %1015.2 hPa2.6 kmVariable3.7 km/hSnowLight Snow
3:20 PM-1 °C-2 °C93 %1016.3 hPa2.6 kmVariable3.7 km/hSnowLight Snow
3:50 PM-1 °C-2 °C93 %1016.3 hPa2.6 kmVariable3.7 km/hSnowLight Snow
4:00 PM-0.6 °C-1.7 °C90 %1019 hPa3.2 km°3.5 km/hSnowLight Snow
4:20 PM-1 °C-2 °C93 %1016.3 hPa2.6 kmVariable1.9 km/hSnowLight Snow
4:50 PM-1 °C-2 °C93 %1016.3 hPa2.6 kmVariable1.9 km/hSnowLight Snow
5:20 PM-1 °C-2 °C93 %1017.3 hPa3.1 kmVariable1.9 km/hSnowLight Snow
5:50 PM-1 °C-2 °C93 %1017.3 hPa3.1 kmVariable3.7 km/hSnowLight Snow
6:20 PM-1 °C-2 °C93 %1017.3 hPa3.1 kmWNW (300°)3.7 km/hSnowLight Snow
6:50 PM-1 °C-2 °C93 %1017.9 hPa3.1 kmVariable1.9 km/hSnowLight Snow
7:00 PM-1.1 °C-1.7 °C95 %1020.7 hPa3.2 km°3.5 km/hSnowLight Snow
7:20 PM-1 °C-2 °C93 %1017.9 hPa3.1 kmVariable1.9 km/hSnowLight Snow
7:50 PM-1 °C-2 °C93 %1017.9 hPa3.5 kmVariable1.9 km/hSnowLight Snow
8:20 PM-1 °C-2 °C93 %1017.9 hPa3.5 kmWNW (290°)3.7 km/hSnowLight Snow
8:50 PM-1 °C-2 °C93 %1019 hPa3.1 kmVariable1.9 km/hSnowLight Snow
9:20 PM-1 °C-2 °C93 %1019 hPa3.1 kmVariable1.9 km/hSnowLight Snow
9:50 PM-1 °C-2 °C93 %1019 hPa3.5 kmVariable3.7 km/hSnowLight Snow
10:00 PM-1.7 °C-2.2 °C97 %1022.4 hPa3.2 km°3.5 km/hSnowLight Snow
10:20 PM-2 °C-2 °C100 %1019 hPa4 kmVariable3.7 km/hSnowLight Snow
10:50 PM-2 °C-2 °C100 %1019 hPa4 kmWNW (300°)7.4 km/hSnowLight Snow
11:20 PM-2 °C-2 °C100 %1019 hPa4 kmNW (310°)7.4 km/hSnowLight Snow
11:50 PM-2 °C-2 °C100 %1020 hPaWNW (300°)5.6 km/hSnowSnow
Hourly data recorded from LOWK, located 0 kilometers away from Abriach, Austria







STORIES FROM OUR PARTNERS